Change the Weather History Date:

Saturday, August 23, 2014

  Actual Average Record
Temperature  
Mean Temperature 78 °F 74 °F  
Max Temperature 83 °F 85 °F 101 °F (1948)
Min Temperature 72 °F 65 °F 50 °F (1984)
Degree Days  
Heating Degree Days 0 0  
Month to date heating degree days 0 0  
Since 1 June heating degree days 9 14  
Since 1 July heating degree days 7 1  
Cooling Degree Days 13 10  
Month to date cooling degree days 171 244  
Year to date cooling degree days 746 973  
Since 1 June cooling degree days 608 870  
Growing Degree Days 28 (Base 50)    
Moisture  
Dew Point 74 °F    
Average Humidity 87    
Maximum Humidity 100    
Minimum Humidity 74    
Precipitation  
Precipitation 0.75 in 0.14 in 2.73 in (2002)
Month to date precipitation 4.33 3.13  
Year to date precipitation 27.19 26.11  
Sea Level Pressure  
Sea Level Pressure 29.94 in    
Wind  
Wind Speed 6 mph (ENE)    
Max Wind Speed 28 mph    
Max Gust Speed 36 mph    
Visibility 7 miles    
Events Rain , Thunderstorm    
T = Trace of Precipitation, MM = Missing Value Source: NWS Daily Summary

Daily Weather History Graph

Daily Weather History Graph

Search for Another Location

Airport or City:

Trip Planner

Search our weather history database for the weather conditions in past years. The results will help you decide how hot, cold, wet, or windy it might be!

Date:

Astronomy

Aug. 23, 2014 Rise Set
Actual Time 6:22 AM CDT 7:50 PM CDT
Civil Twilight 5:53 AM CDT 8:19 PM CDT
Nautical Twilight 5:19 AM CDT 8:54 PM CDT
Astronomical Twilight 4:42 AM CDT 9:30 PM CDT
Moon 4:38 AM CDT (8/23) 6:35 PM CDT (8/23)
Length of Visible Light 14h 25m
Length of Day
13h 28m
Waning Crescent, 3% of the Moon is Illuminated
Aug 23
Waning Crescent
Aug 25
New
Sep 2
First Quarter
Sep 8
Full
Sep 15
Last Quarter

Hourly Weather History & Observations

Time (CDT) Temp. Heat Index Dew Point Humidity Pressure Visibility Wind Dir Wind Speed Gust Speed Precip Events Conditions
12:53 AM 79.0 °F - 77.0 °F 94% 29.91 in 8.0 mi SE 3.5 mph - N/A   Clear
1:53 AM 75.9 °F - 75.9 °F 100% 29.92 in 5.0 mi Calm Calm - N/A   Clear
2:15 AM 75.0 °F - 73.9 °F 96% 29.95 in 2.0 mi Calm Calm - N/A   Scattered Clouds
2:22 AM 75.0 °F - 73.9 °F 96% 29.95 in 1.0 mi NNE 3.5 mph - N/A   Scattered Clouds
2:30 AM 75.0 °F - 75.0 °F 100% 29.94 in 3.0 mi Calm Calm - N/A   Partly Cloudy
2:53 AM 75.0 °F - 75.0 °F 100% 29.91 in 3.0 mi SE 3.5 mph - N/A   Mostly Cloudy
3:53 AM 75.0 °F - 73.9 °F 96% 29.92 in 5.0 mi NNE 4.6 mph - N/A   Clear
4:53 AM 75.9 °F - 75.0 °F 97% 29.89 in 5.0 mi ESE 3.5 mph - N/A   Clear
6:06 AM 73.9 °F - 73.9 °F 100% 29.92 in 1.8 mi Calm Calm - N/A   Clear
6:17 AM 75.0 °F - 73.9 °F 96% 29.92 in 3.0 mi ESE 4.6 mph - N/A   Partly Cloudy
6:53 AM 77.0 °F - 75.9 °F 96% 29.90 in 5.0 mi East 3.5 mph - N/A   Clear
7:47 AM 77.0 °F - 75.2 °F 94% 29.95 in 5.0 mi NW 3.5 mph - 0.00 in Rain , Thunderstorm Light Thunderstorms and Rain
7:53 AM 77.0 °F - 75.9 °F 96% 29.93 in 5.0 mi Calm Calm - 0.00 in Rain , Thunderstorm Light Thunderstorms and Rain
7:57 AM 77.0 °F - 75.9 °F 96% 29.95 in 1.8 mi Calm Calm - 0.10 in Rain , Thunderstorm Heavy Thunderstorms and Rain
8:06 AM 75.9 °F - 72.0 °F 87% 29.95 in 0.8 mi WSW 4.6 mph - 0.39 in Rain , Thunderstorm Heavy Thunderstorms and Rain
8:18 AM 75.9 °F - 75.0 °F 97% 29.93 in 2.5 mi NE 4.6 mph - 0.49 in Rain , Thunderstorm Light Thunderstorms and Rain
8:25 AM 75.0 °F - 73.9 °F 96% 29.94 in 10.0 mi Calm Calm - 0.49 in Rain , Thunderstorm Light Thunderstorms and Rain
8:46 AM 75.0 °F - 75.0 °F 100% 29.99 in 4.0 mi West 25.3 mph 36.8 mph 0.54 in Rain , Thunderstorm Heavy Thunderstorms and Rain
8:53 AM 73.0 °F - 73.0 °F 100% 29.98 in 2.0 mi WNW 12.7 mph 36.8 mph 0.63 in Rain , Thunderstorm Heavy Thunderstorms and Rain
8:56 AM 73.0 °F - 73.0 °F 100% 30.00 in 1.8 mi NW 10.4 mph 28.8 mph 0.04 in Rain , Thunderstorm Thunderstorms and Rain
9:06 AM 73.0 °F - 73.0 °F 100% 29.99 in 2.0 mi NW 5.8 mph - 0.11 in Rain , Thunderstorm Thunderstorms and Rain
9:09 AM 73.0 °F - 73.0 °F 100% 29.98 in 3.0 mi NW 4.6 mph - 0.12 in Rain , Thunderstorm Thunderstorms and Rain
9:19 AM 73.0 °F - 73.0 °F 100% 29.98 in 8.0 mi West 3.5 mph - 0.12 in Rain , Thunderstorm Light Thunderstorms and Rain
9:22 AM 73.0 °F - 73.0 °F 100% 29.98 in 9.0 mi Calm Calm - 0.12 in Rain Light Rain
9:29 AM 73.0 °F - 73.0 °F 100% 29.98 in 10.0 mi Calm Calm - 0.12 in Rain Light Rain
9:37 AM 73.0 °F - 73.0 °F 100% 29.98 in 10.0 mi WNW 3.5 mph - 0.12 in   Scattered Clouds
9:53 AM 73.4 °F - 73.4 °F 100% 29.96 in - North - - N/A   Unknown
10:40 AM 73.0 °F - 72.0 °F 96% 29.97 in 10.0 mi ENE 3.5 mph - N/A   Partly Cloudy
10:53 AM 73.0 °F - 72.0 °F 96% 29.95 in 10.0 mi ENE 5.8 mph - N/A   Clear
11:27 AM 73.4 °F - 71.6 °F 94% 29.95 in 10.0 mi East 6.9 mph - N/A   Scattered Clouds
11:53 AM 73.9 °F - 73.0 °F 97% 29.93 in 10.0 mi East 10.4 mph - N/A   Scattered Clouds
12:22 PM 75.9 °F - 73.0 °F 91% 29.95 in 10.0 mi East 8.1 mph - N/A   Mostly Cloudy
12:53 PM 75.9 °F - 73.0 °F 91% 29.94 in 10.0 mi East 8.1 mph - N/A   Overcast
1:43 PM 78.1 °F - 73.9 °F 87% 29.95 in 10.0 mi East 10.4 mph - N/A   Scattered Clouds
1:53 PM 78.1 °F - 73.0 °F 84% 29.94 in 10.0 mi ENE 8.1 mph - N/A   Mostly Cloudy
2:02 PM 79.0 °F - 73.9 °F 84% 29.94 in 10.0 mi East 8.1 mph - N/A   Scattered Clouds
2:53 PM 82.0 °F 87.9 °F 73.9 °F 76% 29.92 in 10.0 mi ESE 9.2 mph - N/A   Clear
3:53 PM 82.4 °F 88.2 °F 73.4 °F 74% 29.92 in 10.0 mi East 6.9 mph - N/A   Clear
4:53 PM 82.9 °F 89.4 °F 73.9 °F 74% 29.89 in 10.0 mi ESE 8.1 mph - N/A   Clear
5:53 PM 82.9 °F 89.4 °F 73.9 °F 74% 29.88 in 10.0 mi East 6.9 mph - N/A   Clear
6:53 PM 81.0 °F 86.7 °F 75.0 °F 82% 29.88 in 10.0 mi East 5.8 mph - N/A   Clear
7:53 PM 79.0 °F - 73.9 °F 84% 29.88 in 10.0 mi East 6.9 mph - N/A   Clear
8:53 PM 77.0 °F - 73.0 °F 88% 29.90 in 10.0 mi ENE 5.8 mph - N/A   Clear
9:53 PM 75.2 °F - 71.6 °F 89% 29.92 in 10.0 mi East 8.1 mph - N/A   Clear
10:53 PM 73.9 °F - 71.1 °F 91% 29.92 in 10.0 mi ENE 5.8 mph - N/A   Clear
11:53 PM 73.9 °F - 71.1 °F 91% 29.92 in 10.0 mi ENE 8.1 mph - N/A   Clear